Location: Unspecified
(18.1555°N, 0.0000°E)
Time: 03:10:45
(UTC+00:00)

Explorer 7 - Visible Passes

Search period start: 04 April 2026 00:00
Search period end: 14 April 2026 00:00
Orbit: 429 x 539 km, 50.2° (Epoch: 29 March)

Date Brightness Start Highest point End Pass type
(mag) Time Alt. Az. Time Alt. Az. Time Alt. Az.
4 Apr 6.4 05:00:36 10° NW 05:04:06 77° NE 05:07:31 10° SE visible
4 Apr 7.1 18:32:37 10° SSW 18:36:30 44° SE 18:40:22 10° NE visible
4 Apr 9.7 20:12:47 10° WNW 20:14:56 14° NW 20:17:05 10° N visible
5 Apr 6.6 04:35:01 22° NNW 04:37:04 68° NE 04:40:29 10° SE visible
5 Apr 9.7 19:45:25 10° W 19:47:50 15° NW 19:50:15 10° N visible
6 Apr 7.5 04:10:55 42° ESE 04:10:55 42° ESE 04:13:25 10° SE visible
6 Apr 9.6 19:18:04 10° W 19:20:42 17° NW 19:23:21 10° N visible
7 Apr 9.6 18:50:42 10° W 18:53:33 18° NW 18:56:23 10° N visible
